TimeMST,TemperatureF,Dew PointF,Humidity,Sea Level PressureIn,VisibilityMPH,Wind Direction,Wind SpeedMPH,Gust SpeedMPH,PrecipitationIn,Events,Conditions,WindDirDegrees,DateUTC
12:54 AM,32.0,12.9,45,30.16,10.0,Calm,Calm,-,N/A,,Clear,0,2012-12-04 07:54:00
1:54 AM,35.1,14.0,42,30.17,10.0,ENE,4.6,-,N/A,,Clear,60,2012-12-04 08:54:00
2:54 AM,33.1,15.1,48,30.19,10.0,SW,4.6,-,N/A,,Clear,230,2012-12-04 09:54:00
3:54 AM,30.0,14.0,51,30.22,10.0,Calm,Calm,-,N/A,,Clear,0,2012-12-04 10:54:00
4:54 AM,25.0,12.9,60,30.27,10.0,West,6.9,-,N/A,,Clear,270,2012-12-04 11:54:00
5:54 AM,26.1,14.0,60,30.32,10.0,WNW,9.2,-,N/A,,Clear,300,2012-12-04 12:54:00
6:54 AM,28.0,16.0,61,30.33,10.0,WNW,10.4,-,N/A,,Clear,290,2012-12-04 13:54:00
7:54 AM,32.0,17.1,54,30.33,10.0,WNW,8.1,-,N/A,,Clear,300,2012-12-04 14:54:00
8:54 AM,41.0,19.9,43,30.32,10.0,WSW,10.4,-,N/A,,Clear,250,2012-12-04 15:54:00
9:54 AM,48.0,21.0,34,30.31,10.0,West,9.2,-,N/A,,Clear,260,2012-12-04 16:54:00
11:54 AM,53.1,19.9,27,30.25,10.0,SSE,3.5,-,N/A,,Clear,150,2012-12-04 18:54:00
12:54 PM,55.9,19.0,24,30.22,10.0,SE,6.9,-,N/A,,Clear,130,2012-12-04 19:54:00
1:54 PM,57.0,21.0,25,30.17,10.0,East,4.6,-,N/A,,Clear,90,2012-12-04 20:54:00
2:54 PM,57.9,19.9,23,30.17,10.0,ENE,5.8,-,N/A,,Clear,70,2012-12-04 21:54:00
3:54 PM,57.0,19.9,24,30.18,10.0,NE,6.9,-,N/A,,Clear,50,2012-12-04 22:54:00
4:54 PM,52.0,19.0,27,30.20,10.0,NE,5.8,-,N/A,,Clear,50,2012-12-04 23:54:00
5:54 PM,43.0,17.1,35,30.24,10.0,West,10.4,-,N/A,,Clear,260,2012-12-05 00:54:00
6:54 PM,46.0,21.0,37,30.22,10.0,WSW,13.8,-,N/A,,Clear,250,2012-12-05 01:54:00
7:54 PM,42.1,21.0,43,30.23,10.0,SW,5.8,-,N/A,,Clear,220,2012-12-05 02:54:00
8:54 PM,45.0,23.0,42,30.18,10.0,WSW,12.7,-,N/A,,Clear,240,2012-12-05 03:54:00
9:54 PM,44.1,23.0,43,30.15,10.0,SW,13.8,-,N/A,,Clear,230,2012-12-05 04:54:00
10:54 PM,41.0,21.0,45,30.16,10.0,West,8.1,-,N/A,,Clear,280,2012-12-05 05:54:00
11:54 PM,39.0,17.1,41,30.15,10.0,West,10.4,-,N/A,,Clear,280,2012-12-05 06:54:00